Regional Weather Roundup
Issued by NWS

Home | Current Version | Previous Version | Graphics & Text | Print | Product List | Glossary On
Versions: 1 2 3 4 5 6 7 8 9 10 11 12 13 14 15 16 17 18 19 20 21 22 23 24 25 26 27 28 29 30 31 32 33 34 35 36 37 38 39 40 41 42 43 44 45 46 47 48 49 50
554
ASUS43 KFSD 180602
RWRSD

WEATHER ROUNDUP FOR SOUTH DAKOTA
NATIONAL WEATHER SERVICE SIOUX FALLS SD
1200 AM CST SUN FEB 18 2018

NOTE: "FAIR" INDICATES FEW OR NO CLOUDS BELOW 12,000 FEET WITH NO
SIGNIFICANT WEATHER AND/OR OBSTRUCTIONS TO VISIBILITY.


SDZ001>005-009-010-012>017-180700-
NORTHWEST AND NORTH CENTRAL SOUTH DAKOTA

CITY           SKY/WX    TMP DP  RH WIND       PRES   REMARKS
BUFFALO          N/A     17   7  64 E20       29.51F WCI   1
FAITH            N/A     18  14  84 E18       29.62F WCI   2
MOBRIDGE       CLOUDY    21  13  71 E13       29.80F WCI   9
$$

SDZ012>016-024>037-041>051-057-063-072>074-180700-
SOUTHWEST AND SOUTH CENTRAL SOUTH DAKOTA

CITY           SKY/WX    TMP DP  RH WIND       PRES   REMARKS
RAPID CTY ARPT CLOUDY    23  21  92 SE10      29.54F WCI  12
PIERRE         CLOUDY    25  21  85 E21       29.74F WCI  11
CUSTER         CLOUDY    35  12  38 SW9       29.53F WCI  28
ELLSWORTH AFB  CLOUDY    23  23  99 E10       29.53F WCI  13
PHILIP         CLOUDY    27  24  89 E14       29.62F WCI  16
PINE RIDGE     CLOUDY    39  23  52 S25G37    29.59F
SPEARFISH        N/A     21  18  86 NW3       29.50F
WINNER         FAIR      34  24  67 S30G44    29.74F WCI  20
$$

SDZ004>011-016>023-039-040-180700-
NORTHEAST SOUTH DAKOTA

CITY           SKY/WX    TMP DP  RH WIND       PRES   REMARKS
ABERDEEN       CLOUDY    20  14  77 SE5       29.95F WCI  13
WATERTOWN      CLOUDY    19  16  88 S3        29.95R
BROOKINGS      CLOUDY    21  18  88 S8        30.00R WCI  11
SISSETON         N/A     16  10  77 SW5       29.98R WCI   9
$$

SDZ017-020-022-023-036>040-048>070-180700-
SOUTHEAST SOUTH DAKOTA

CITY           SKY/WX    TMP DP  RH WIND       PRES   REMARKS
SIOUX FALLS    CLOUDY    21  19  92 S3        30.01F
HURON          CLOUDY    23  19  85 E9        29.90F WCI  13
CHAMBERLAIN    CLOUDY    30  27  90 E18G24    29.82F WCI  18
MITCHELL       CLOUDY    24  21  88 SE13      29.93F WCI  12
YANKTON        CLOUDY    23  21  92 E5        29.98F WCI  17
$$

ABBREVIATIONS USED IN REMARKS
   TC - TEMPERATURE IN CELSIUS
  WCI - WIND CHILL INDEX
   HX - HEAT INDEX
  VSB - VISIBILITY





USA.gov is the U.S. government's official web portal to all federal, state and local government web resources and services.